Temperature
2 1 0 -0 -1 -1 -1 -1 -1 -1 -1 -1 -2 -2 -2 -2 -2 -2 -1 -1 -1 -1 -2 -2 -1 -0 0 1 1 1 3 4 5 6 7 9 9 10 10 10 11 11 12
2 1 -1 -1 -2 -3 -3 -2 -2 -3 -3 -4 -4 -4 -4 -4 -4 -4 -3 -2 -2 -3 -3 -4 -3 -3 -2 -1 -1 -0 0 2 3 3 5 8 10 10 10 10 10 11 11
1 0 -1 -2 -3 -4 -4 -4 -4 -4 -5 -5 -5 -5 -5 -5 -5 -5 -5 -4 -4 -4 -5 -5 -5 -4 -4 -4 -3 -2 -2 -1 0 1 3 6 10 11 11 10 10 10 11
1 -1 -2 -3 -4 -5 -5 -5 -5 -6 -6 -6 -7 -7 -7 -7 -7 -7 -7 -6 -6 -6 -6 -6 -5 -5 -5 -4 -4 -3 -3 -2 -2 -0 1 3 5 8 10 10 10 10 11
-0 -1 -3 -4 -5 -5 -6 -6 -6 -7 -7 -7 -8 -8 -8 -8 -8 -8 -7 -7 -6 -6 -6 -6 -6 -6 -5 -5 -4 -3 -3 -2 -2 -1 -1 1 3 5 7 9 10 10 10
-0 -2 -3 -4 -5 -6 -7 -7 -7 -8 -8 -8 -8 -9 -9 -9 -8 -8 -8 -8 -8 -7 -7 -7 -7 -7 -6 -5 -4 -3 -3 -2 -2 -2 -1 -1 1 3 6 7 9 10 10
-1 -3 -4 -5 -6 -7 -7 -8 -8 -9 -9 -9 -9 -9 -9 -9 -9 -9 -9 -9 -9 -8 -8 -8 -8 -7 -6 -5 -4 -4 -3 -2 -2 -1 -1 -1 0 2 4 5 7 9 10
-2 -3 -4 -6 -7 -7 -8 -9 -9 -9 -10 -10 -10 -10 -10 -10 -10 -10 -10 -10 -10 -9 -9 -9 -8 -7 -7 -6 -5 -4 -3 -2 -2 -1 -1 -1 0 1 2 4 5 7 8
-3 -4 -5 -6 -7 -8 -8 -9 -10 -10 -10 -11 -11 -11 -11 -11 -11 -11 -11 -11 -10 -10 -9 -9 -8 -8 -7 -6 -6 -5 -4 -3 -2 -1 -1 -0 0 1 2 3 4 5 7
-3 -4 -5 -7 -8 -8 -9 -9 -10 -10 -11 -11 -11 -12 -12 -12 -12 -12 -12 -11 -11 -11 -10 -9 -9 -8 -7 -7 -6 -6 -5 -4 -3 -2 -1 -0 0 1 2 3 3 4 5
-4 -5 -6 -7 -8 -9 -9 -10 -10 -11 -11 -12 -12 -12 -12 -12 -12 -12 -12 -12 -12 -11 -11 -10 -9 -9 -8 -7 -7 -6 -6 -5 -4 -2 -1 -1 0 1 1 2 3 4 4
-4 -5 -6 -7 -8 -9 -10 -10 -11 -11 -11 -12 -12 -12 -12 -13 -13 -13 -13 -13 -13 -12 -12 -11 -10 -9 -8 -7 -7 -7 -6 -6 -5 -3 -2 -1 -0 0 1 2 2 3 4
-5 -6 -7 -8 -9 -10 -10 -11 -11 -11 -12 -12 -12 -13 -13 -13 -13 -13 -13 -13 -13 -13 -12 -11 -11 -10 -9 -8 -7 -7 -7 -6 -5 -4 -4 -3 -2 -0 0 1 2 3 3
-5 -6 -7 -8 -9 -10 -11 -11 -11 -12 -12 -12 -13 -13 -13 -14 -14 -14 -14 -13 -13 -13 -13 -12 -11 -10 -9 -8 -8 -7 -7 -7 -6 -5 -4 -3 -3 -2 -0 0 1 2 3
-6 -7 -8 -9 -10 -10 -11 -11 -11 -11 -12 -12 -12 -13 -13 -13 -14 -14 -14 -14 -13 -13 -13 -13 -12 -11 -10 -9 -8 -7 -8 -7 -7 -6 -5 -4 -3 -2 -1 -0 0 1 2
-7 -8 -9 -9 -10 -10 -10 -10 -11 -11 -12 -12 -12 -13 -13 -13 -14 -14 -14 -14 -14 -13 -13 -13 -13 -12 -11 -10 -8 -8 -8 -8 -8 -7 -6 -5 -4 -3 -2 -1 -1 -0 1
-7 -8 -9 -10 -10 -10 -10 -10 -10 -11 -11 -12 -12 -12 -13 -13 -14 -14 -14 -14 -14 -14 -13 -13 -13 -12 -12 -10 -9 -8 -8 -8 -8 -8 -7 -7 -6 -5 -3 -3 -2 -1 -1
-8 -9 -9 -9 -9 -9 -9 -10 -10 -10 -11 -11 -12 -12 -13 -14 -14 -14 -14 -14 -14 -14 -14 -14 -13 -13 -12 -11 -9 -9 -9 -9 -9 -8 -8 -7 -7 -6 -5 -4 -3 -3 -2
-8 -8 -8 -9 -9 -9 -9 -10 -10 -10 -11 -11 -12 -13 -14 -14 -14 -14 -14 -14 -15 -14 -14 -14 -13 -13 -12 -11 -10 -9 -9 -9 -9 -8 -8 -8 -7 -7 -6 -5 -5 -5 -4
-7 -7 -8 -9 -9 -9 -10 -10 -10 -10 -11 -12 -12 -13 -14 -14 -15 -15 -15 -15 -15 -14 -14 -14 -13 -13 -12 -12 -11 -10 -9 -9 -9 -9 -8 -8 -8 -8 -7 -7 -7 -7 -6
-7 -7 -8 -8 -9 -9 -9 -9 -10 -11 -11 -11 -12 -13 -14 -14 -15 -15 -15 -15 -15 -14 -14 -14 -13 -13 -13 -12 -11 -11 -10 -10 -9 -9 -9 -9 -9 -9 -9 -9 -9 -9 -8
-7 -7 -8 -8 -9 -9 -9 -10 -10 -11 -11 -11 -12 -13 -13 -14 -14 -14 -15 -15 -14 -14 -14 -14 -13 -13 -13 -12 -12 -11 -11 -10 -10 -10 -10 -10 -10 -10 -10 -10 -10 -9 -9
-7 -7 -8 -8 -8 -9 -10 -10 -10 -10 -11 -11 -12 -13 -14 -14 -14 -14 -14 -14 -14 -14 -14 -14 -13 -13 -13 -13 -12 -12 -11 -11 -11 -11 -11 -11 -10 -10 -10 -11 -10 -10 -10
-7 -7 -8 -8 -8 -9 -9 -10 -10 -10 -11 -12 -13 -14 -14 -14 -14 -14 -14 -14 -14 -14 -13 -13 -13 -13 -13 -13 -13 -12 -12 -12 -12 -12 -12 -12 -12 -11 -12 -11 -11 -11 -11
-7 -7 -8 -8 -8 -9 -9 -9 -10 -10 -11 -12 -13 -14 -14 -13 -14 -14 -14 -14 -14 -14 -14 -14 -14 -13 -13 -13 -13 -13 -13 -13 -13 -13 -13 -13 -13 -13 -13 -13 -13 -13 -12
-7 -7 -7 -8 -8 -9 -9 -9 -10 -10 -11 -12 -13 -13 -13 -13 -14 -14 -14 -14 -14 -14 -14 -14 -14 -14 -14 -14 -14 -14 -14 -14 -14 -13 -14 -14 -14 -14 -14 -14 -14 -14 -14
Wind_Speed
14 14 16 18 19 20 20 21 21 21 19 16 16 16 15 14 14 16 20 20 20 21 18 15 16 15 13 15 16 14 15 13 12 12 13 15 17 17 14 14 14 14 14
15 15 16 17 18 18 19 19 20 20 18 16 15 14 15 13 14 17 19 20 21 21 18 17 15 15 15 16 16 15 13 13 11 10 10 10 14 15 15 15 15 15 14
15 15 15 17 17 18 19 18 20 19 18 20 15 14 13 13 13 15 14 20 22 21 20 19 17 16 15 14 16 15 15 13 13 11 8 8 10 10 12 15 16 16 15
14 14 15 17 18 17 17 18 19 18 18 19 16 18 14 15 17 15 15 20 21 21 20 20 19 17 15 16 16 15 14 14 13 12 11 13 14 11 10 9 12 15 15
14 14 14 16 16 16 16 16 18 17 18 18 17 17 16 15 15 16 18 18 18 20 21 21 20 17 15 17 18 17 16 13 13 12 12 14 14 17 15 15 12 11 12
14 13 13 15 15 16 15 16 17 17 18 18 18 18 19 19 19 19 18 17 15 16 20 22 20 19 16 17 18 17 18 15 15 14 13 13 12 13 14 17 17 14 12
13 13 14 16 16 17 16 16 17 18 18 19 19 19 19 19 19 19 18 18 16 16 19 20 19 18 18 19 18 18 17 17 16 15 13 13 14 14 14 15 16 17 14
13 13 14 15 16 17 16 17 17 18 18 19 19 18 19 15 15 18 18 17 16 17 20 22 21 21 21 19 17 16 17 15 15 16 16 13 14 14 14 14 14 15 15
13 13 14 14 16 16 16 17 18 18 19 19 19 18 18 18 18 19 18 16 16 18 22 22 20 20 20 19 19 15 17 17 15 14 15 13 13 13 14 14 14 15 15
12 13 13 14 15 15 15 16 17 18 18 19 18 16 18 18 18 17 19 19 20 21 21 21 21 20 19 19 18 17 17 18 16 13 13 13 11 12 12 13 14 14 15
12 13 14 14 15 15 16 16 17 18 18 18 18 18 17 17 18 17 18 19 19 20 21 21 21 20 20 19 17 17 18 17 17 15 14 13 12 11 11 11 12 13 13
12 14 14 14 15 16 16 16 17 17 18 18 18 18 17 18 18 18 19 20 20 20 20 20 20 20 20 20 18 17 16 16 16 16 15 13 11 11 10 10 12 12 13
14 14 14 14 15 15 16 16 16 17 17 17 17 17 18 18 19 19 19 19 19 19 20 19 20 20 20 20 18 15 14 14 14 14 14 13 12 11 8 8 8 8 9
14 14 14 14 15 15 15 16 16 16 17 17 17 17 18 18 19 19 19 19 19 19 19 19 19 19 19 19 19 13 13 13 14 14 14 13 13 12 9 6 6 5 6
15 14 15 15 15 15 15 16 16 16 16 17 17 17 17 18 18 18 18 19 19 19 19 19 19 19 17 18 21 11 11 12 14 14 14 14 18 19 13 5 3 2 2
14 15 15 15 16 16 16 16 16 16 16 16 16 17 17 18 18 18 18 18 18 18 18 18 19 19 16 26 29 15 10 11 13 14 14 14 15 18 20 19 17 13 6
14 14 15 15 15 16 15 16 16 16 16 16 16 16 17 18 18 18 18 18 18 18 18 18 18 19 21 28 29 20 11 11 12 13 13 12 13 15 13 17 20 22 25
13 13 13 14 15 15 14 15 15 15 15 16 16 16 17 18 18 18 18 17 16 16 16 17 18 18 20 27 29 22 11 10 12 13 13 12 12 13 14 13 15 17 19
11 12 12 14 15 14 14 15 15 15 15 16 17 17 18 18 18 18 18 17 16 16 16 16 17 18 19 25 29 20 10 9 11 12 13 12 13 19 20 15 15 15 15
10 11 13 14 13 14 14 15 16 16 16 17 18 19 18 18 18 18 18 16 15 15 15 15 16 16 17 23 27 21 10 9 9 11 12 17 20 23 22 16 14 15 14
11 12 13 12 12 13 14 15 16 16 18 19 19 19 18 18 17 16 16 16 14 14 14 15 14 14 16 20 25 23 11 10 9 8 9 13 24 25 24 20 15 16 13
11 12 12 13 13 12 13 16 17 18 18 19 19 18 18 16 15 16 15 15 14 13 13 13 13 12 13 17 20 23 18 14 9 7 8 13 22 24 24 18 19 19 15
11 11 12 14 13 13 14 16 17 18 18 18 18 18 18 16 16 15 15 13 12 11 11 10 10 11 11 14 19 20 20 18 12 10 16 18 20 18 17 21 22 17 12
10 11 12 13 14 15 15 15 17 17 18 18 18 17 17 16 16 14 12 12 12 12 12 9 8 9 10 11 11 12 12 13 10 10 13 17 18 16 16 16 14 12 12
9 10 11 12 14 15 16 16 16 17 18 18 17 17 16 16 15 14 12 13 11 13 12 9 8 8 9 12 17 14 12 10 9 8 9 10 10 10 10 10 11 11 11
9 10 11 13 14 15 16 16 17 17 18 17 17 15 14 14 14 13 13 15 15 17 16 14 12 9 11 14 16 17 17 17 14 11 9 9 9 10 10 9 10 10 10
Wind_Direction
10 9 7 4 0 357 356 355 353 351 351 349 344 341 339 336 336 337 336 335 335 335 333 329 328 327 323 321 317 316 312 306 304 292 278 263 254 250 248 245 245 241 238
1 2 1 360 357 355 354 352 351 348 349 347 340 336 332 332 333 334 332 333 334 333 332 331 329 325 321 317 317 317 311 305 301 298 291 269 255 241 240 241 240 241 238
355 355 355 356 355 355 354 350 348 345 347 345 341 339 337 336 339 337 333 332 330 329 329 329 328 323 320 313 312 310 304 303 301 287 278 273 259 258 237 235 237 237 237
354 352 353 354 353 352 351 348 346 345 346 345 344 343 341 340 336 333 328 328 328 327 326 327 326 322 317 311 307 303 298 294 290 288 271 266 276 276 260 236 234 238 237
352 351 353 351 349 349 349 347 345 345 346 346 345 342 340 338 333 333 330 331 328 327 326 327 325 321 316 310 306 301 293 285 279 278 278 278 273 261 260 258 247 234 233
350 347 348 349 348 349 349 347 345 346 347 346 345 343 340 338 335 336 334 333 329 327 327 327 324 320 316 312 308 303 296 286 275 270 267 265 265 261 254 251 251 248 238
346 344 347 348 349 348 348 346 345 345 347 346 345 341 339 337 334 335 332 331 329 328 326 326 322 320 316 313 311 307 299 292 281 270 265 262 259 262 263 261 255 251 246
347 346 347 347 347 346 346 345 344 344 345 345 343 340 339 336 332 331 329 327 326 325 323 324 321 319 319 317 316 314 310 300 291 277 267 262 259 256 254 254 257 253 247
346 345 346 347 347 346 345 344 342 342 343 343 341 339 339 336 332 330 328 327 326 324 325 324 322 320 320 320 320 317 318 315 304 289 273 263 259 255 252 249 248 249 247
346 345 347 348 347 345 343 343 343 341 341 341 340 337 337 336 333 330 330 329 327 326 325 325 324 322 322 322 321 320 322 323 317 305 289 273 264 258 252 246 244 243 247
347 346 347 347 346 344 344 343 343 342 342 341 339 338 338 336 335 333 331 330 328 328 327 326 325 324 324 325 321 322 325 327 324 321 314 302 284 269 258 250 243 240 240
347 346 345 344 345 344 343 342 342 341 341 339 338 337 338 338 337 336 334 332 330 329 328 327 326 326 327 327 322 322 329 332 330 329 326 322 314 289 268 254 244 238 234
346 346 345 345 344 342 340 339 339 340 338 338 337 337 338 339 338 336 335 334 333 331 331 330 329 328 329 328 324 322 332 335 335 335 333 334 331 318 291 265 247 239 234
346 346 344 343 341 339 338 337 337 338 337 337 336 337 336 336 335 334 334 335 335 334 334 332 331 330 329 328 326 324 340 342 342 343 343 344 343 338 320 289 262 241 229
345 344 342 340 338 337 335 335 334 335 334 333 334 333 332 331 332 333 334 335 336 335 335 335 335 334 332 330 331 337 350 348 348 349 349 349 355 357 2 358 338 284 232
343 342 339 336 335 334 332 330 328 328 327 327 326 327 329 329 329 330 333 335 335 334 335 336 336 337 336 333 340 354 352 352 352 352 353 354 358 5 10 28 43 43 39
341 338 334 331 330 329 328 323 322 322 321 321 321 322 324 325 326 327 329 333 333 332 332 333 335 336 335 338 343 352 351 353 355 355 356 359 2 14 15 26 38 41 44
335 331 328 326 324 324 321 317 316 315 316 317 317 319 321 321 321 324 326 329 330 329 329 330 333 335 337 340 342 349 351 354 356 357 357 2 12 24 31 34 41 43 41
330 325 324 322 321 321 319 317 314 315 315 315 317 319 320 319 320 321 322 326 328 325 327 329 333 336 338 341 345 354 352 357 359 360 5 19 32 38 38 38 42 44 38
331 327 324 322 322 323 322 316 317 320 321 321 320 320 321 321 320 319 321 324 323 324 326 328 333 338 341 344 349 360 357 360 1 3 12 36 47 45 44 40 41 42 38
333 330 325 323 323 324 321 318 321 325 324 322 321 322 324 323 320 320 322 321 322 323 326 328 333 340 345 348 352 3 4 359 359 7 22 42 48 46 44 44 43 44 43
334 332 327 323 324 323 322 322 326 327 326 324 325 327 327 325 322 324 324 324 324 323 326 329 335 343 347 351 353 2 9 11 6 17 34 46 50 48 45 44 40 41 42
332 330 325 320 325 329 330 328 328 329 327 327 329 328 328 327 328 329 329 329 327 324 321 321 333 342 347 351 358 6 12 23 32 45 58 56 52 47 44 41 40 39 39
332 328 325 326 328 332 335 332 330 330 329 329 330 330 330 330 332 333 333 332 329 327 328 335 341 342 346 358 8 11 12 18 38 44 48 52 53 51 44 41 40 39 40
327 326 324 322 326 333 335 335 335 335 333 332 333 333 334 335 338 340 339 339 339 340 349 353 350 346 352 15 24 24 22 30 41 46 46 43 42 42 41 41 39 38 37
321 322 323 327 331 333 335 338 340 338 336 336 338 338 339 343 345 344 344 347 349 351 358 0 0 360 13 30 34 34 35 41 47 51 48 44 41 39 37 36 36 35 35
Height
1613 1609 1604 1598 1592 1586 1579 1573 1566 1560 1553 1546 1539 1533 1528 1523 1519 1515 1511 1506 1501 1497 1492 1488 1484 1480 1477 1473 1469 1466 1463 1462 1462 1460 1458 1458 1459 1459 1460 1461 1462 1463 1464
1611 1607 1603 1597 1591 1585 1578 1571 1565 1558 1552 1545 1539 1533 1527 1522 1517 1511 1507 1503 1498 1494 1490 1485 1481 1477 1472 1468 1465 1462 1458 1456 1457 1457 1455 1452 1452 1450 1451 1453 1454 1456 1458
1610 1606 1601 1596 1590 1583 1576 1570 1563 1557 1551 1544 1537 1531 1525 1519 1514 1508 1503 1499 1495 1491 1487 1482 1478 1473 1469 1465 1461 1458 1454 1452 1450 1451 1452 1449 1444 1445 1445 1445 1446 1448 1450
1609 1605 1600 1594 1588 1582 1575 1568 1562 1555 1549 1542 1535 1529 1523 1518 1512 1507 1501 1496 1492 1487 1483 1479 1474 1470 1465 1461 1457 1454 1451 1447 1444 1443 1444 1444 1444 1442 1439 1439 1439 1441 1442
1608 1604 1599 1593 1587 1581 1573 1567 1560 1554 1547 1541 1534 1528 1523 1517 1511 1505 1499 1493 1488 1483 1479 1475 1470 1465 1461 1457 1453 1449 1446 1443 1439 1437 1436 1436 1435 1436 1436 1434 1434 1435 1435
1607 1602 1598 1592 1586 1579 1572 1565 1558 1552 1546 1539 1533 1527 1521 1515 1509 1503 1496 1490 1484 1479 1475 1470 1465 1461 1456 1452 1447 1443 1439 1436 1433 1430 1428 1428 1428 1428 1429 1428 1428 1429 1430
1605 1601 1596 1590 1583 1577 1570 1563 1557 1550 1544 1537 1531 1525 1519 1513 1507 1501 1494 1488 1482 1476 1470 1466 1461 1456 1451 1447 1442 1437 1432 1429 1426 1423 1421 1420 1420 1421 1422 1422 1422 1422 1424
1603 1599 1594 1588 1582 1575 1568 1561 1555 1548 1542 1535 1529 1523 1517 1511 1505 1499 1493 1487 1481 1474 1468 1462 1457 1452 1446 1441 1436 1430 1425 1421 1417 1415 1413 1411 1411 1412 1413 1415 1416 1416 1416
1601 1597 1593 1587 1580 1573 1566 1560 1553 1546 1540 1533 1526 1520 1514 1508 1502 1496 1491 1485 1478 1472 1465 1459 1453 1448 1442 1437 1431 1425 1419 1414 1410 1407 1405 1404 1402 1403 1405 1406 1408 1411 1409
1600 1596 1591 1585 1578 1572 1565 1558 1552 1545 1538 1531 1524 1518 1512 1506 1499 1493 1487 1481 1475 1469 1462 1456 1450 1444 1439 1433 1428 1422 1415 1409 1404 1401 1398 1397 1395 1395 1396 1397 1399 1401 1403
1598 1594 1589 1583 1577 1570 1563 1556 1549 1543 1536 1529 1522 1515 1509 1503 1497 1491 1485 1478 1472 1465 1459 1453 1447 1441 1435 1430 1425 1419 1413 1406 1400 1396 1393 1391 1389 1389 1389 1389 1391 1393 1395
1597 1592 1587 1581 1575 1568 1561 1554 1548 1541 1534 1527 1520 1514 1508 1501 1495 1489 1482 1476 1469 1463 1457 1450 1444 1438 1433 1427 1422 1417 1411 1405 1398 1393 1389 1386 1383 1382 1382 1382 1383 1385 1387
1595 1590 1585 1579 1573 1566 1559 1552 1546 1539 1532 1525 1519 1512 1506 1499 1493 1487 1480 1474 1467 1461 1455 1448 1442 1436 1430 1424 1419 1415 1410 1403 1397 1391 1387 1383 1379 1377 1376 1375 1376 1377 1379
1593 1588 1583 1577 1571 1564 1558 1551 1544 1537 1530 1524 1517 1511 1504 1498 1492 1485 1479 1472 1466 1459 1453 1447 1441 1435 1429 1422 1417 1413 1408 1402 1396 1390 1385 1380 1377 1373 1371 1369 1369 1370 1372
1591 1587 1581 1575 1569 1562 1556 1549 1542 1535 1529 1522 1516 1509 1503 1496 1490 1484 1477 1471 1464 1458 1452 1446 1439 1433 1427 1421 1416 1411 1406 1401 1395 1389 1384 1379 1375 1371 1368 1366 1365 1366 1367
1590 1585 1579 1573 1567 1560 1553 1546 1540 1533 1527 1521 1514 1508 1501 1494 1488 1482 1476 1469 1463 1457 1451 1445 1439 1432 1426 1420 1416 1410 1406 1401 1395 1389 1384 1379 1374 1370 1367 1365 1364 1363 1364
1588 1583 1577 1571 1565 1558 1552 1545 1538 1532 1526 1519 1513 1506 1499 1492 1486 1480 1475 1468 1462 1455 1450 1444 1438 1432 1426 1420 1415 1410 1406 1402 1397 1391 1386 1381 1377 1372 1369 1366 1365 1363 1363
1586 1580 1575 1569 1563 1557 1550 1544 1537 1530 1524 1517 1510 1503 1496 1490 1484 1478 1473 1467 1461 1455 1449 1444 1438 1433 1427 1421 1416 1410 1407 1403 1398 1393 1389 1385 1381 1377 1373 1369 1367 1366 1365
1584 1579 1573 1567 1561 1555 1549 1542 1535 1528 1521 1514 1507 1501 1494 1488 1482 1476 1471 1465 1459 1454 1449 1444 1438 1433 1427 1421 1416 1411 1408 1404 1400 1396 1392 1388 1385 1381 1377 1374 1372 1370 1370
1582 1578 1572 1567 1560 1554 1547 1540 1534 1527 1520 1512 1505 1499 1492 1486 1479 1474 1469 1463 1458 1453 1448 1443 1438 1433 1428 1422 1417 1413 1409 1406 1403 1399 1395 1392 1389 1386 1383 1380 1378 1376 1376
1581 1577 1572 1566 1559 1552 1546 1539 1532 1525 1519 1511 1503 1497 1490 1483 1477 1472 1467 1461 1457 1452 1448 1443 1439 1434 1430 1424 1419 1415 1412 1409 1406 1403 1400 1397 1394 1392 1389 1387 1385 1384 1382
1580 1575 1570 1565 1559 1551 1545 1538 1532 1525 1517 1509 1502 1495 1488 1482 1476 1471 1465 1460 1456 1451 1447 1443 1439 1435 1431 1426 1422 1418 1414 1411 1409 1407 1404 1402 1399 1397 1395 1393 1392 1390 1388
1579 1574 1569 1564 1558 1551 1544 1537 1531 1523 1515 1507 1500 1493 1487 1482 1476 1470 1465 1460 1455 1451 1447 1443 1440 1436 1432 1428 1425 1421 1417 1414 1411 1410 1408 1406 1404 1402 1400 1399 1397 1396 1394
1578 1573 1568 1562 1556 1551 1545 1538 1530 1522 1514 1506 1499 1492 1486 1481 1475 1470 1465 1460 1455 1450 1446 1442 1440 1438 1434 1431 1427 1424 1420 1417 1415 1413 1412 1410 1409 1407 1406 1404 1403 1401 1401
1577 1573 1567 1561 1556 1550 1545 1537 1530 1521 1513 1505 1499 1492 1487 1481 1475 1469 1465 1460 1455 1451 1447 1444 1442 1439 1436 1434 1431 1427 1424 1421 1419 1418 1416 1415 1414 1412 1411 1410 1408 1407 1406
1577 1573 1567 1562 1556 1551 1544 1538 1530 1522 1513 1506 1499 1493 1487 1481 1475 1469 1464 1460 1456 1451 1447 1445 1443 1441 1439 1436 1433 1430 1427 1425 1423 1421 1420 1419 1418 1417 1416 1415 1414 1413 1411